Tracking 32968 objects as of 17-Jan-2026
HD Live streaming from Space Station
objects crossing your sky now

STARLINK-2466

Track STARLINK-2466 now!
10-day predictions
STARLINK-2466 is classified as:


NORAD ID: 48125
Int'l Code: 2021-027AK
Perigee: 553.4 km
Apogee: 555.3 km
Inclination: 53.1 °
Period: 95.6 minutes
Semi major axis: 6925 km
RCS: Unknown
Launch date: April 7, 2021
Source: United States (US)
Launch site: AIR FORCE EASTERN TEST RANGE (AFETR)
Your satellite tracking list
Your tracking list is empty




NASA's NSSDC Master Catalog

Two Line Element Set (TLE):
1 48125U 21027AK  26017.44414872  .00001878  00000-0  14487-3 0  9993
2 48125  53.0560  41.9098 0001361  87.5716 272.5429 15.06410739264691
Source of the keplerian elements: AFSPC